Location: Goheenville
(40.9070°N, 79.3720°W)
Time: 21:37:36
(UTC-04:00)

Daily predictions for brighter satellites

Satellite Brightness Start Highest point End
(mag) Time Altitude Azimuth Time Altitude Azimuth Time Altitude Azimuth
Cosmos 2266 Rocket 4.2 21:16:12 10° N 21:22:34 63° E 21:28:48 10° SSE
Cosmos 1452 Rocket 3.6 21:17:33 10° NNW 21:22:51 71° ENE 21:28:06 10° SSE
Spot 2 Rocket 3.5 21:19:01 10° SSE 21:24:02 73° ENE 21:29:06 10° N
Cosmos 1420 Rocket 4.1 21:19:07 10° NNW 21:24:17 64° ENE 21:29:25 10° SSE
Cosmos 1939 Rocket 4.0 21:23:10 10° S 21:27:06 46° W 21:31:01 10° NNW
Meteor 1-16 Rocket 4.3 21:27:45 10° N 21:33:17 68° E 21:38:58 10° SSE
Cosmos 1707 3.8 21:39:31 10° SSW 21:43:15 47° W 21:47:00 10° N
H-2A R/B 2.5 21:40:49 10° SE 21:45:51 48° ENE 21:51:02 10° N
MetOp-B 4.5 21:44:26 10° SSE 21:49:37 53° ENE 21:54:49 10° N
ATLAS 3B R/B 3.8 21:45:11 10° NNW 21:51:01 31° NE 21:56:46 10° ESE
Cosmos-2242 3.7 21:47:23 10° N 21:51:32 40° ENE 21:55:07 13° SE
Cosmos 1315 Rocket 2.8 21:48:30 10° S 21:52:32 74° E 21:56:38 10° NNE
Cosmos 1674 3.8 21:50:52 13° SE 21:53:38 27° E 21:56:54 10° NNE
Cosmos 1953 4.5 21:50:40 10° NW 21:53:58 25° W 21:57:16 10° SW
Cosmos 1269 Rocket 4.1 21:49:24 10° S 21:54:36 60° ESE 21:59:50 10° NNE
Cosmos 2084 3.8 21:52:29 10° NNW 21:56:13 45° NE 21:59:10 15° ESE
Cosmos 494 Rocket 4.5 21:57:48 10° S 22:02:38 40° ESE 22:07:32 10° NE
BREEZE-M R/B 4.4 22:01:07 10° W 22:02:45 14° SW 22:04:09 10° SSW
ERS-2 4.2 22:07:24 10° SSW 22:10:28 25° W 22:13:33 10° NW
Cosmos 2278 Rocket 3.5 22:08:20 16° SE 22:10:41 20° E 22:14:43 10° NE
Helios 1A 4.0 22:09:19 17° ESE 22:11:51 32° ENE 22:15:36 10° N
Cosmos 1953 Rocket 3.6 22:07:43 10° S 22:12:03 82° W 22:16:28 10° N
SPOT 5 3.7 22:08:36 16° SE 22:12:10 40° ENE 22:17:03 10° N
Cosmos 1726 3.2 22:10:22 10° NNE 22:13:43 30° ENE 22:15:29 20° ESE
Cosmos 1238 Rocket 2.4 22:14:00 10° SSW 22:16:55 65° W 22:19:55 10° N
ATLAS 2AS CENTAUR R/B 3.0 22:09:18 10° SSW 22:17:04 79° ESE 22:25:12 10° NE
Cosmos 1758 Rocket 4.2 22:13:11 10° SSW 22:17:34 57° W 22:21:56 10° N
Timation 1 Rocket 4.3 22:12:26 10° SSW 22:18:18 66° ESE 22:24:13 10° NNE
Resurs 01 Rocket 3.9 22:15:15 10° SW 22:18:35 21° W 22:21:55 10° NW
OAO 3 Rocket 3.7 22:13:55 10° WSW 22:18:35 42° S 22:21:44 19° ESE
Lacrosse 5 2.4 22:14:00 10° SW 22:19:01 64° NW 22:24:04 10° NE
ARGOS 3.4 22:13:56 10° S 22:19:19 70° WSW 22:24:45 10° NNW
SL-8 R/B 3.6 22:15:43 10° SW 22:20:32 75° SSE 22:25:23 10° ENE
Helios 1B rocket 3.6 22:18:32 10° NE 22:21:59 26° E 22:23:15 22° SE
Iridium 18 4.4 22:20:45 23° SSE 22:22:36 62° E 22:26:16 10° N
COSMOS 2406 3.7 22:17:01 10° NNW 22:22:37 49° ENE 22:26:24 20° SE
CSL-04 DEB 4.2 22:25:14 22° SSE 22:27:38 77° ENE 22:31:35 10° N
Cosmos 2251 Rocket 4.2 22:25:25 20° SSE 22:28:20 34° E 22:33:07 10° NE
Cosmos 1346 Rocket 3.0 22:26:00 10° NNW 22:30:00 73° W 22:32:47 19° S
ERS-1 Rocket 2.9 22:26:46 18° SSE 22:30:33 89° WSW 22:35:38 10° NNW
CZ-2C R/B 4.4 22:28:42 18° ESE 22:32:06 31° ENE 22:37:05 10° N
Cosmos 1844 3.6 22:26:31 10° SSW 22:32:10 76° ESE 22:37:57 10° NNE
Cosmos 1844 Rocket 2.8 22:26:41 10° SSW 22:32:21 83° WNW 22:38:03 10° NNE
Cosmos 1417 Rocket 4.5 22:27:01 11° S 22:33:09 76° E 22:39:27 10° N
KORONAS-FOTON 3.8 22:33:26 22° S 22:35:48 71° E 22:39:44 10° NNE
OE (NEXTSAT) 4.4 22:34:42 10° WNW 22:38:12 62° SSW 22:39:24 36° SE
SL-08 RB Rocket 4.4 22:35:38 14° S 22:39:26 52° W 22:44:01 10° NNW
Cosmos 2221 3.8 22:37:15 10° NNE 22:40:53 26° ENE 22:42:13 22° ESE
Meteor 1-24 Rocket 4.5 22:35:12 10° SSW 22:41:07 58° WNW 22:47:04 10° N
ATLAS 3B CENTAUR R/B 4.2 22:29:37 10° SW 22:43:12 28° S 22:46:48 22° SE
Cosmos 921 Rocket 3.2 22:42:19 10° NNW 22:46:48 70° WSW 22:49:14 26° S
Cosmos 1745 Rocket 4.0 22:43:00 10° N 22:49:18 69° E 22:53:00 26° SSE
Meteor 1-29 3.6 22:46:54 10° NNE 22:50:04 35° E 22:50:08 35° ESE
ATLAS 5 CENTAUR R/B 3.0 22:53:54 22° E 22:53:54 22° E 22:56:53 10° ENE
NOSS 3-4 (A) 3.7 22:50:38 20° S 22:54:29 44° ESE 23:00:28 10° NE
NOSS 3-4 (C) 3.7 22:50:51 21° S 22:54:35 44° ESE 23:00:32 10° NE
SL-08 R/B 4.5 22:49:35 10° N 22:55:45 85° W 22:59:48 23° S
Landsat 7 3.7 22:54:52 31° SSE 22:57:08 83° ENE 23:01:55 10° N
Cosmos 2082 Rocket 3.9 22:53:48 10° N 22:58:18 23° NE 23:01:32 15° E
CENTAUR R/B 4.3 22:53:01 10° NNW 23:00:01 34° NE 23:07:07 11° ESE
Cosmos 1908 4.1 22:57:11 10° NNW 23:00:52 43° W 23:02:49 24° SSW
Cosmos 1833 Rocket 4.1 22:58:47 10° N 23:03:33 27° NE 23:06:24 18° E
Meteor 2-13 Rocket 4.4 23:00:43 10° N 23:06:49 84° E 23:10:01 30° S
Cosmos 1461 3.2 23:08:00 36° S 23:09:41 58° ESE 23:14:22 10° NE
CARTOSAT-1 3.5 23:10:01 43° SSE 23:11:26 87° ENE 23:15:46 10° NNW
Cosmos 807 4.1 23:12:49 69° WSW 23:12:59 72° W 23:16:06 10° N
Cosmos 1626 2.7 23:14:08 39° E 23:14:08 39° E 23:17:34 10° NNE
Spot 1 4.0 23:13:56 45° SSE 23:15:15 83° ENE 23:19:49 10° NNW
S3M 4.3 23:10:09 15° SSW 23:15:26 67° W 23:21:49 10° N
CZ-2C R/B 3.0 23:10:28 10° NNE 23:15:41 45° E 23:17:05 37° SE
Cosmos 220 Rocket 4.2 23:13:14 23° SSW 23:15:46 67° WNW 23:19:58 10° NNE
Terra 1.7 23:14:51 41° SSE 23:16:32 84° ENE 23:21:19 10° NNW
Cosmos 1340 3.3 23:13:19 10° NNW 23:17:00 48° W 23:18:05 36° SW
IGS 5A 3.5 23:19:09 45° S 23:20:18 71° WSW 23:24:28 10° NNW
APEX 2.7 23:17:10 10° NNW 23:20:19 86° WSW 23:20:32 77° S
Cosmos 1709 Rocket 4.1 23:16:39 10° N 23:22:50 62° E 23:25:15 37° SE
NOSS 2-2 (D) 4.1 23:24:53 36° E 23:24:53 36° E 23:28:02 10° NE
SPOT 1/Viking Rocket 4.3 23:22:20 25° SSW 23:24:56 45° W 23:29:52 10° NNW
H-2A R/B 4.1 23:21:34 10° SW 23:25:31 21° W 23:29:32 10° NW
BREEZE-M DEB (TANK) 4.4 23:21:33 10° W 23:27:19 34° NNW 23:29:52 10° NE
YAOGAN 11 4.1 23:26:55 51° SSE 23:28:04 80° ENE 23:32:37 10° N
Cosmos 1455 3.8 23:27:30 10° NNE 23:30:25 23° ENE 23:30:25 23° ENE
Cosmos 1300 2.8 23:27:28 10° NNW 23:31:16 64° W 23:31:48 56° SW
Cosmos 1076 Rocket 3.4 23:32:55 62° SE 23:33:25 70° E 23:37:39 10° NNE
Cosmos 1766 Rocket 4.4 23:34:46 35° E 23:34:48 35° E 23:38:52 10° NNE
Cosmos 1328 3.7 23:34:47 67° ESE 23:34:53 68° E 23:38:49 10° NNE
SL-27 R/B 4.0 23:34:57 10° N 23:38:04 26° ENE 23:38:04 26° ENE
Spot 4 4.2 23:38:24 44° ESE 23:39:28 53° ENE 23:44:13 10° N
USA 238 DEB 4.4 23:34:24 10° NW 23:41:11 47° WSW 23:44:13 31° SSW
USA 238 4.3 23:34:30 10° NW 23:41:18 47° WSW 23:44:19 31° SSW
ATLAS 3B R/B 2.8 23:35:35 10° NW 23:42:03 58° WSW 23:44:26 38° S
SL-08 ROCKET BODY 4.4 23:38:54 10° N 23:45:08 76° E 23:47:11 44° SSE
NOSS 2-2 (C) 3.2 23:50:16 79° E 23:50:16 79° E 23:54:22 10° NE
Mayak 0.5 23:47:19 10° NE 23:49:39 20° ENE 23:49:39 20° ENE
H-2A R/B 4.3 23:50:04 12° ENE 23:50:51 13° ENE 23:52:36 10° NE
Cosmos 2278 Rocket 2.8 23:50:05 18° SW 23:54:16 56° WNW 23:59:52 10° NNE
